星链-11270 (STARLINK-11270)

导读 | 豆包AI

STARLINK-11270是美国SpaceX星链互联网卫星星座的一员,于2024年9月5日发射升空,用于构建全球低轨卫星互联网通信网络。它运行在近地轨道,可填补地面网络覆盖空白,为全球偏远地区、海洋空域等提供高速宽带接入服务,也是星链规模持续扩张、完善全球服务能力的一部分。

基本信息
目录编号:
60999
目录名称:
STARLINK-11270
国际标识:
2024-158K
轨道中心:
EARTH
卫星名称:
星链-11270
卫星全名:
星链-11270 (STARLINK-11270)
卫星状态:
在轨 (已飞行627 天)
发射日期:
2024-09-05 UTC
国别 :
美国 (US)
星等 :
--
轨道信息
数据来源 国际轨道数据
星历时间: 2026-05-24T09:46:45+0800
1天前
查看轨道信息
半长轴: 6737.787km
偏心率: 0.0000489
轨道倾角: 53.159°
近地点辐角 36.839°
升交点赤经 269.718°
平近点角 323.266°
近地点: 359.32km
远地点: 359.98km
周期: 91.735分钟
每日圈数: 15.69737
详细信息
固有亮度:
5
最大亮度:
2.5
卫星平台:
Starlink V1.0
覆盖范围:
全球
运营商:
太空探索技术公司
运营商所在国:
美国
制造商(研发单位):
太空探索技术公司
制造商所在国:
美国
使用方式:
暂无
卫星简介
Starlink 计划是 SpaceX 推出的全球卫星互联网项目,通过发射低轨道卫星,为全球尤其是偏远地区提供高速、低延迟的互联网服务。自 2019 年起,Starlink 已部署数千颗卫星,旨在缩小全球数字鸿沟,推动互联网普及。该项目还为军事、航空等行业提供通信支持,带来广泛经济效益。
2D轨道图
3D轨道图
轨道高度分析图
轨道倾角分析图
轨道综合分析图
查看轨道综合分析图